User: anonymous   Login
Location: Bauerbach
(50.4985°N, 10.3912°E)
Time: 10:47:16
(UTC+00:00)
Language:

Cosmos 1500 Rocket - Orbit

View from above orbital plane
View from above orbital plane
View from above satellite
View from above satellite

Ground track
Ground track

The orbit is defined by the following mean orbital elements,

1 14373U          26071.67369220 +.00000000 +00000-0 +60539-4 0 00009
2 14373  82.5401 139.7586 0020599 125.6936 234.6202 14.86237354    08
Epoch (UTC): 12 March 2026 16:10:07
Eccentricity: 0.0020599
inclination: 82.5401°
perigee height: 595 km
apogee height: 624 km
right ascension of ascending node: 139.7586°
argument of perigee: 125.6936°
revolutions per day: 14.86237354
mean anomaly at epoch: 234.6202°

The dashed part of the orbit path shows where the satellite is in the earth's shadow,  

DLR